This demonstration page uses our WeatherBlox Daily Observations layout. Learn more.

Left ArrowRight Arrow

36.17497, -115.13722

Hourly Observations for January 6, 2019

Temp ( °F °C ) Dew Point ( °F °C ) Humidity (%) Winds ( mph kmh ) Pressure ( in mb ) Visibility ( mi km ) Precip ( " mm )
12:53 am 00:53 Cloudy 41 5 39 3.9 93 93 NNW 3 6 30.01 1016 9 14.48406 0 0.0254
1:53 am 01:53 Cloudy 41 5 40 4.4 96 96 Calm 30.01 1016 7 11.26538 0 0
2:53 am 02:53 Cloudy 42 5.6 39 3.9 89 89 Calm 29.98 1015 8 12.87472 0 0
3:27 am 03:27 Cloudy with Mist and Fog 41 5 40 4.4 96 96 Calm 29.97 1015 6 9.65604 0 0
3:53 am 03:53 Cloudy with Mist and Fog 41 5 40 4.4 96 96 E 7 11 29.96 1015 5 8.0467 0 0
4:22 am 04:22 Cloudy with Mist and Fog 41 5 41 5 100 100 ESE 6 9 29.97 1015 1.75 2.816345 0 0
4:42 am 04:42 Cloudy with Mist and Fog 41 5 41 5 100 100 ESE 5 7 29.97 1015 2.5 4.02335 0 0
4:53 am 04:53 Cloudy with Mist and Fog 42 5.6 41 5 96 96 ESE 6 9 29.97 1015 2.5 4.02335 0 0
5:00 am 05:00 Cloudy with Mist and Fog 42 5.6 41 5 96 96 ESE 6 9 29.97 1015 5 8.0467 0 0
5:30 am 05:30 Cloudy with Mist and Fog 42 5.6 41 5 96 96 ESE 3 6 29.97 1015 4 6.43736 0 0
5:36 am 05:36 Cloudy with Mist and Fog 42 5.6 41 5 96 96 ESE 6 9 29.97 1015 2.5 4.02335 0 0
5:48 am 05:48 Cloudy with Mist and Fog 43 6 41 5 93 93 E 5 7 29.94 1014 6 9.65604 0 0
5:53 am 05:53 Cloudy 42 5.6 41 5 96 96 E 5 7 29.97 1015 8 12.87472 0 0
6:28 am 06:28 Cloudy 42 5.6 41 5 96 96 ESE 6 9 29.97 1015 8 12.87472 0 0
6:53 am 06:53 Cloudy 42 5.6 41 5 96 96 ESE 6 9 29.98 1015 8 12.87472 0 0
7:30 am 07:30 Cloudy 42 5.6 42 5.6 100 100 SSE 3 6 30 1016 10 16.0934 0 0
7:53 am 07:53 Mostly Cloudy 42 5.6 41 5 96 96 E 7 11 30.01 1016 10 16.0934 0 0
8:16 am 08:16 Cloudy 43 6.1 42 5.6 97 97 Calm 30.03 1017 10 16.0934 0 0
8:53 am 08:53 Cloudy 44 6.7 42 5.6 93 93 N 5 7 30.04 1017 10 16.0934 0 0
9:26 am 09:26 Cloudy 47 8.3 42 5.6 83 83 Calm 30.03 1017 10 16.0934 0 0
9:53 am 09:53 Cloudy 47 8.3 41 5 80 80 NE 3 6 30.07 1018 10 16.0934 0 0
10:53 am 10:53 Cloudy 49 9.4 42 5.6 77 77 E 6 9 30.06 1018 10 16.0934 0 0
11:29 am 11:29 Partly Cloudy 50 10 41 5 71 71 ENE 6 9 29.97 1015 10 16.0934 0 0
11:39 am 11:39 Mostly Cloudy 50 10 41 5 71 71 NNE 5 7 29.97 1015 10 16.0934 0 0
11:53 am 11:53 Cloudy 50 10 41 5 71 71 NNE 7 11 30.04 1017 10 16.0934 0 0
12:11 pm 12:11 Cloudy 50 10 41 5 71 71 ENE 6 9 29.97 1015 10 16.0934 0 0
12:53 pm 12:53 Mostly Sunny 51 10.6 40 4.4 66 66 Calm 30.03 1017 10 16.0934 0 0
1:53 pm 13:53 Sunny 52 11.1 40 4.4 64 64 VRB 3 6 30.02 1017 10 16.0934 0 0
2:53 pm 14:53 Partly Cloudy 53 11.7 40 4.4 61 61 VRB 3 6 30.02 1017 10 16.0934 0 0
3:53 pm 15:53 Partly Cloudy 51 10.6 41 5 69 69 E 9 15 30.04 1017 10 16.0934 0 0
4:53 pm 16:53 Clear 49 9.4 42 5.6 77 77 E 8 13 30.05 1018 10 16.0934 0 0
5:53 pm 17:53 Clear 46 7.8 42 5.6 86 86 ENE 12 19 30.06 1018 10 16.0934 0 0
6:53 pm 18:53 Clear 46 7.8 40 4.4 79 79 ESE 7 11 30.08 1019 10 16.0934 0 0
7:53 pm 19:53 Clear 44 6.7 40 4.4 85 85 E 6 9 30.1 1019 10 16.0934 0 0
8:53 pm 20:53 Clear 45 7.2 39 3.9 80 80 E 8 13 30.09 1019 10 16.0934 0 0
9:53 pm 21:53 Clear 45 7.2 39 3.9 80 80 ESE 16 26 30.08 1019 10 16.0934 0 0
10:53 pm 22:53 Cloudy 47 8.3 37 2.8 69 69 SE 15 24 30.06 1018 10 16.0934 0 0
11:53 pm 23:53 Cloudy 47 8.3 38 3.3 71 71 SSE 12 19 30.07 1018 10 16.0934 0 0

Powered by AerisWeather